Probability
0 0 0 0 0 1 1 1 1 2 5 10 14 14 12 12 15 16 15 14 13 13 14 18 23 25 25 25 25 26 26 26 27 27 25 19 15 14 13 13 16 17 18 18
0 0 0 0 0 2 3 3 4 5 7 11 15 15 13 14 16 17 17 16 15 14 15 18 21 23 24 24 26 28 29 30 30 30 27 21 18 18 19 19 21 22 21 20
0 0 0 0 0 2 4 5 6 7 9 12 15 15 16 17 17 18 18 18 17 15 16 16 18 20 21 24 27 28 29 29 29 29 28 25 23 24 24 24 26 25 24 22
0 0 0 0 1 2 4 4 5 7 10 13 15 16 18 19 18 18 18 18 18 16 15 14 15 17 19 23 25 25 25 24 24 26 26 26 27 26 24 24 25 26 24 22
0 0 0 0 1 2 2 2 3 6 10 13 15 17 19 19 19 18 17 16 16 16 15 15 16 16 18 20 21 23 24 23 22 23 24 25 26 25 23 23 24 24 23 22
0 0 0 0 0 1 1 1 1 3 8 12 15 16 17 18 18 17 15 13 12 13 14 15 15 16 16 17 17 20 24 24 23 23 24 25 25 23 22 22 22 21 21 21
0 0 0 0 0 0 0 0 0 1 3 8 11 13 13 13 15 15 13 11 11 12 12 12 13 13 14 14 16 18 21 23 23 23 24 24 23 21 20 20 18 17 17 18
0 0 0 0 0 0 0 0 0 0 1 4 6 8 10 11 11 12 11 10 10 11 10 10 11 12 12 12 14 16 18 21 22 22 21 20 19 18 17 16 15 14 14 14
0 0 0 0 0 0 0 0 0 0 0 1 2 5 7 9 9 10 9 8 8 8 8 8 9 11 11 11 13 15 17 19 21 21 17 14 14 14 13 13 12 12 12 12
0 0 0 0 0 0 0 0 0 0 0 1 1 2 4 6 7 7 6 6 7 8 7 6 6 8 10 11 13 15 16 17 19 18 15 11 10 10 10 9 9 9 9 10
0 0 0 0 0 0 0 0 0 0 1 1 1 1 1 2 3 4 4 5 7 8 7 6 6 7 10 11 12 13 13 14 14 14 12 10 8 7 7 7 6 6 6 6
0 0 0 0 0 0 0 0 0 0 0 0 0 0 0 1 2 3 3 4 6 7 7 6 5 6 8 9 10 10 10 10 10 11 11 10 9 7 5 4 4 3 2 3
0 0 0 0 0 0 0 0 0 0 0 0 0 0 1 1 3 3 3 4 5 6 6 4 3 4 6 7 7 8 8 7 7 8 9 9 9 8 5 3 1 1 0 1
0 0 0 0 0 0 0 0 0 0 0 0 0 1 2 2 2 2 3 4 4 4 4 3 2 2 3 5 6 6 5 4 3 4 5 6 7 7 6 3 1 0 0 0
0 0 0 0 0 0 0 0 0 0 0 0 1 2 3 2 1 1 2 3 3 3 3 2 1 1 1 2 3 3 3 2 1 1 1 3 4 5 6 5 3 1 0 0
0 0 0 0 0 0 0 0 0 0 0 1 2 3 3 1 0 0 1 2 2 3 2 1 0 0 0 0 1 1 1 1 0 0 0 1 3 4 6 6 5 3 1 0
0 0 0 0 0 0 0 0 0 0 0 1 2 3 2 1 0 0 0 1 1 1 1 1 0 0 0 0 0 0 0 0 0 0 0 1 2 3 5 6 6 4 2 1
0 0 0 0 0 0 0 0 0 0 1 2 2 1 1 0 0 0 0 0 0 0 0 0 0 0 0 0 0 0 0 0 0 0 0 0 1 1 3 4 6 5 4 2
0 0 0 0 0 0 0 0 0 1 1 1 1 0 0 0 0 0 0 0 0 0 0 0 0 0 0 0 0 0 0 0 0 0 0 0 0 0 1 3 5 6 4 3
0 0 0 0 0 0 0 0 1 1 1 0 0 0 0 0 0 0 0 0 0 0 0 0 0 0 0 0 0 0 0 0 0 0 0 0 0 0 0 2 4 5 4 4
0 0 0 0 0 0 0 0 1 1 0 0 0 0 0 0 0 0 0 0 0 0 0 0 0 0 0 0 0 0 0 0 0 0 0 0 0 0 0 0 2 4 3 3
0 0 0 0 0 0 0 0 0 0 0 0 0 0 0 0 0 0 0 0 0 0 0 0 0 0 0 0 0 0 0 0 0 0 0 0 0 0 0 0 1 2 3 2
0 0 0 0 0 0 0 0 0 0 0 0 0 0 0 0 0 0 0 0 0 0 0 0 0 0 0 0 0 1 1 0 0 0 0 0 0 0 0 0 0 1 2 3
0 0 0 0 0 0 0 0 0 0 0 0 0 0 0 0 0 0 0 0 0 0 0 0 0 0 0 0 0 1 1 0 0 0 0 0 0 0 0 0 0 1 2 3
0 0 0 0 0 0 0 0 0 0 0 0 0 0 0 0 0 0 0 0 0 0 0 0 0 0 0 0 0 1 1 0 0 0 0 0 0 0 0 0 0 1 2 2
0 0 0 0 0 0 0 0 0 0 0 0 0 0 0 0 0 0 0 0 0 0 0 0 0 0 0 0 0 0 0 0 0 0 0 0 0 0 0 0 0 0 1 1
0 0 0 0 0 0 0 0 0 0 0 0 0 0 0 0 0 0 0 0 0 0 0 0 0 0 0 0 0 0 0 0 0 0 0 0 0 0 0 0 0 0 0 0
Wind_Speed
4 3 2 3 3 3 4 7 7 7 7 8 6 5 4 3 1 1 1 1 1 1 1 2 3 3 4 4 4 5 6 6 7 6 6 5 5 4 4 4 5 5 5 5
2 2 3 4 5 4 4 3 4 3 6 5 4 2 2 2 2 2 2 2 1 0 0 1 2 3 3 3 4 4 5 5 5 5 5 5 5 5 5 4 4 4 5 6
3 4 2 5 6 5 3 2 4 6 7 3 2 2 3 3 3 3 2 1 1 1 1 2 2 3 3 3 3 4 4 4 5 5 5 6 5 5 4 4 4 4 5 4
1 1 6 9 3 3 3 3 3 3 4 3 3 3 1 1 2 2 2 2 2 1 2 2 1 1 2 2 3 4 4 4 5 6 6 5 5 5 5 4 4 4 5 4
3 3 6 6 3 3 4 3 2 2 2 2 1 2 2 1 1 3 2 2 2 2 2 2 1 2 2 2 3 3 4 5 5 6 6 6 6 6 5 4 4 4 4 4
4 4 7 7 3 1 4 3 2 1 2 1 2 1 4 3 2 2 2 1 1 1 0 1 2 2 3 3 3 4 5 5 4 4 6 6 6 5 4 4 5 4 4 4
5 5 8 6 3 2 4 7 3 2 2 2 3 4 3 2 1 1 2 2 1 0 0 2 2 1 3 3 4 4 2 2 3 4 5 5 5 4 4 4 4 3 3 3
4 4 8 3 1 3 5 2 2 2 3 2 3 2 1 1 1 1 2 2 1 1 1 2 1 2 2 3 3 1 1 2 3 3 3 4 4 4 4 4 4 3 2 3
7 7 5 3 3 3 2 2 3 3 3 2 2 2 2 1 1 2 2 2 1 1 2 2 2 2 3 3 2 1 2 2 3 2 2 3 4 4 4 4 4 3 4 4
4 6 5 4 3 2 2 3 3 3 3 2 3 2 2 2 2 2 2 2 1 1 2 3 3 2 3 2 2 2 2 2 2 2 2 2 2 3 4 4 4 4 4 3
5 6 6 5 3 3 3 3 2 1 2 3 3 2 2 2 2 2 3 2 1 2 3 4 3 2 2 2 1 1 1 1 1 1 2 2 2 2 3 3 5 5 4 4
7 7 5 7 6 4 4 4 3 2 2 2 3 3 3 3 3 3 3 3 2 3 3 3 3 3 2 1 1 2 1 1 1 1 1 2 2 1 1 2 3 4 4 5
8 7 7 8 7 5 4 4 4 4 4 3 3 3 3 3 3 3 3 3 3 3 3 3 2 2 2 1 1 2 2 2 1 1 1 2 2 2 1 1 1 1 2 3
7 5 6 7 7 5 4 4 3 3 3 3 3 3 3 3 3 3 5 4 3 2 2 2 2 3 3 1 1 1 2 2 2 1 1 1 2 3 3 2 2 2 1 1
8 7 8 7 5 4 3 2 3 4 3 3 3 3 4 4 4 5 5 3 2 1 2 2 2 3 2 1 2 2 2 1 1 1 1 1 1 2 2 2 2 2 1 1
7 7 6 5 5 5 4 4 5 6 5 4 4 4 5 5 4 4 3 2 2 3 3 2 3 4 2 2 2 1 1 2 1 1 1 1 1 1 2 2 2 2 2 2
5 5 5 5 6 6 6 6 6 6 5 5 5 4 3 2 2 3 3 3 3 4 3 3 4 4 2 2 2 2 1 1 1 1 1 1 1 2 2 2 2 2 2 2
7 7 7 6 6 6 6 6 5 5 5 6 5 3 3 3 4 5 4 2 2 2 3 4 3 3 3 3 2 2 1 1 1 1 1 1 1 1 1 2 2 2 2 1
4 4 5 5 5 5 5 5 5 5 5 4 3 4 4 4 4 4 2 2 2 3 4 3 2 2 2 3 2 1 1 1 1 1 1 1 1 1 1 2 2 2 1 1
2 3 3 3 3 3 4 3 3 3 3 3 3 3 3 3 3 3 2 2 3 3 3 2 2 2 2 2 2 1 2 2 1 1 1 1 1 1 1 2 2 2 1 1
3 2 2 2 2 2 2 2 2 2 3 2 3 4 3 3 2 2 2 2 3 2 1 2 1 1 1 1 1 1 1 1 1 1 1 1 1 1 1 2 2 2 2 1
3 2 2 2 2 2 2 2 2 2 2 2 2 2 2 2 1 1 2 3 3 2 1 1 1 1 1 1 1 1 1 1 1 1 1 1 1 1 2 2 2 1 1 1
3 3 3 2 1 2 3 2 1 1 1 2 2 2 3 3 2 2 2 2 1 1 1 1 1 1 1 1 1 1 1 0 0 0 0 1 1 1 1 1 1 1 1 2
3 2 2 2 2 2 2 3 3 2 1 1 2 2 3 2 1 2 2 2 1 1 0 0 0 0 1 1 1 1 0 0 0 0 0 0 0 0 1 1 1 1 1 2
3 3 2 2 2 2 2 2 3 2 2 1 1 0 1 2 2 2 1 1 1 0 0 0 1 1 1 1 1 1 0 0 0 0 0 0 0 0 1 1 1 1 1 1
2 2 2 2 2 2 1 1 1 1 1 1 1 1 1 0 0 0 0 1 1 1 1 0 0 1 1 1 1 1 1 1 1 1 0 0 0 0 1 1 1 1 1 1
3 2 2 3 3 2 1 1 0 1 1 0 0 1 1 1 1 1 1 1 1 1 1 1 1 1 1 1 1 1 1 1 1 1 1 1 0 0 1 1 1 1 1 1
Wind_Direction
236 244 223 230 242 209 192 189 192 226 229 250 256 251 246 241 244 242 264 255 196 175 195 197 184 185 190 188 184 185 186 192 200 199 195 191 196 202 204 205 211 211 215 219
294 287 267 260 254 236 225 206 215 234 257 259 278 264 222 221 210 207 227 249 277 331 218 190 178 186 189 190 190 181 183 195 192 187 186 187 193 196 200 206 212 209 216 219
259 294 335 261 236 209 206 212 188 214 243 272 285 265 234 223 202 201 210 239 270 274 250 222 211 191 186 192 180 177 185 190 186 184 190 196 194 187 198 206 212 215 219 216
196 111 227 244 251 186 181 227 225 233 252 251 236 242 228 194 197 209 204 208 236 252 256 254 235 215 175 161 171 179 183 192 190 185 192 193 190 197 202 206 210 220 225 222
147 207 267 288 251 171 168 255 258 231 275 297 330 50 354 312 235 228 232 230 242 254 249 254 242 215 164 171 181 180 185 197 202 194 194 194 197 203 203 199 210 217 220 222
151 188 233 247 267 209 122 261 261 209 240 251 100 85 275 298 304 312 312 286 260 277 292 262 258 192 166 188 195 210 210 212 208 201 200 203 208 206 198 199 210 210 222 223
180 218 257 261 294 77 163 236 246 210 221 185 188 217 249 289 313 311 305 284 260 231 289 277 273 181 180 199 220 234 231 224 218 211 207 204 204 202 196 200 200 206 220 233
164 202 250 283 79 175 220 250 232 227 229 222 240 267 262 237 263 298 299 295 280 256 278 288 259 174 202 228 242 246 234 235 239 226 215 201 192 200 198 194 199 208 224 249
196 218 249 282 238 247 210 222 239 228 243 214 219 273 284 275 276 271 274 288 296 261 269 281 258 200 214 246 239 205 199 218 231 235 221 199 193 197 199 196 201 212 217 235
264 270 278 281 270 270 251 241 246 233 223 195 205 240 263 264 279 284 285 282 288 274 268 281 282 251 235 252 231 197 217 219 213 222 224 203 196 199 203 203 203 209 217 230
265 277 299 293 275 270 284 280 263 237 213 208 198 243 244 232 245 262 279 283 258 238 252 265 275 274 263 241 199 187 225 250 249 243 214 190 194 212 216 218 212 207 214 213
240 244 236 263 274 276 272 266 246 222 255 247 209 221 231 234 236 238 249 263 270 259 251 263 267 266 273 255 182 177 214 251 247 252 215 185 178 241 288 242 248 233 227 216
242 252 244 262 273 274 264 252 241 221 214 230 242 230 226 240 244 240 247 248 249 257 258 262 262 269 277 264 215 197 212 235 239 231 221 200 193 195 236 312 297 236 244 236
242 249 268 264 261 267 258 256 257 252 242 228 231 238 234 234 240 243 248 244 235 238 250 255 262 271 268 231 199 207 213 222 227 227 223 217 209 206 206 220 255 284 286 253
249 234 241 258 264 266 260 250 248 253 252 255 244 241 231 223 230 242 252 251 238 237 249 249 253 270 273 224 196 207 217 221 219 221 225 229 219 206 197 212 236 268 300 304
262 259 244 245 255 261 258 247 241 246 244 243 242 239 232 229 235 247 254 235 218 239 247 244 251 259 252 220 202 210 214 221 212 202 226 223 218 203 203 210 222 239 256 263
259 255 240 241 244 245 244 242 239 240 236 235 236 234 226 226 242 255 260 249 236 243 240 231 249 258 242 217 204 212 215 223 223 208 219 222 223 223 219 217 225 240 255 254
243 242 235 226 229 239 247 246 243 240 235 233 228 216 216 221 231 242 250 258 262 272 261 237 235 246 246 233 213 207 201 207 211 207 207 212 218 221 220 218 227 238 264 260
277 266 257 244 236 231 237 241 238 236 234 225 214 221 227 232 234 238 235 222 232 259 272 265 249 239 248 248 219 189 184 188 199 219 213 210 222 231 229 226 233 240 238 237
302 293 272 258 249 233 238 241 237 241 240 218 210 220 235 244 238 231 216 226 239 245 256 261 248 244 244 234 202 187 186 190 201 215 201 206 224 242 246 239 234 236 238 236
331 320 318 308 304 296 267 246 226 242 249 208 193 207 222 239 229 199 192 255 277 264 257 251 243 241 235 209 189 180 183 191 210 216 208 206 215 237 248 247 240 240 240 240
338 344 333 330 330 323 314 286 244 232 226 202 194 198 200 225 232 226 228 231 248 252 241 234 238 234 219 178 168 163 190 204 217 212 206 208 217 235 252 259 254 252 248 245
324 326 326 323 323 317 321 321 299 259 229 215 211 208 205 216 211 204 255 262 237 240 228 220 236 214 174 140 137 153 156 156 175 214 243 229 219 228 248 263 268 264 259 257
345 339 332 332 2 8 340 329 329 329 306 264 226 210 200 205 259 245 228 236 250 253 227 218 190 119 123 118 117 118 125 154 162 157 298 294 287 285 285 291 291 277 263 259
343 348 354 2 1 331 315 329 351 359 5 6 354 285 211 191 206 244 244 183 164 98 68 109 124 102 94 104 113 121 126 81 136 135 125 114 326 338 348 344 331 314 300 291
338 332 317 295 285 289 297 318 345 334 5 11 349 334 346 14 136 268 75 106 112 128 139 134 111 83 86 103 110 125 132 118 117 120 112 118 323 336 338 340 342 326 309 303
349 350 351 349 342 335 338 350 328 309 304 194 321 338 1 29 53 72 84 89 93 95 89 76 81 106 119 120 115 117 120 125 125 122 117 99 56 335 333 350 331 314 310 312